Powrót do katalogu

STARLINK-3831

AktywnyŁącznośćVLEO
NORAD 52332·PAYLOAD·🇺🇸 United States

Wystrzelony Apr 29, 2022 z Cape Canaveral Space Force Station

Loading…

Następne Przeloty (najbliższe 24 godziny)

TLE

ŚwieżeSource: CelesTrak SupGP

Epoka: Sep 14, 2026, 21:04 UTC

1 52332C 22045B   26257.87826389  .00727230  00000+0  23144-1 0  2573
2 52332  53.1610  77.6700 0001341  78.1532 195.7802 15.31670897    15

Śledź STARLINK-3831 w czasie rzeczywistym z AllMySat

Download on the App Store